Погода в Панама-Сити

США     30°09′30″N   85°39′38″W
темп.,
°C
ветер,
м/с
пор.,
м/с
влажн.,
%
обл.,
%
осадки,
мм/ч
давл.,
гПа
погр.,
м
14 августа, вс
вс1401:00+26св12811 1.3 101559
04:00+24св23855 0.3 1015110
07:00+24св35860 0.3 1015171
10:00+30св22565 0.1 1016892
13:00+35ююз123818 0.2 10152474
16:00+30зюз335491 0.0 1014602
19:00+29з236172 0.0 1014405
22:00+28ююз11680 0.0 101474
15 августа, пн
пн1501:00+27зсз11740 0.0 101431
04:00+26св01770 0.0 101323
07:00+26с117522 0.0 101466
10:00+32зюз11485 0.0 1015909
13:00+33юз544427 0.0 10141918
16:00+32юз555025 0.0 1012938
19:00+29юз46645 0.0 1012598
22:00+28юз357257 0.0 1013385
16 августа, вт
вт1601:00+28зюз377482 0.0 1012434
04:00+27зюз237872 0.1 1011142
07:00+27зюз367919 0.6 1012388
10:00+31зюз45624 0.6 10131008
13:00+33зюз56505 0.7 10131194
16:00+33юз55545 0.0 1012914
19:00+30юз45680 0.0 1011470
22:00+29зюз487732 0.1 1012426
17 августа, ср
ср1701:00+28з257089 0.3 1012261
04:00+26зюз2576100 0.4 1012170
07:00+27зсз377784 0.4 1013330
10:00+32зсз355472 0.0 1014907
13:00+34зюз554711 0.0 10131456
16:00+33зюз5553100 0.0 1012888
19:00+30юз456766 0.4 1011476
22:00+28сз3677100 1.8 1012290
18 августа, чт
чт1801:00+24ссв2486100 6.2 1013189
04:00+25ю2486100 1.4 1012189
07:00+26юз368277 1.4 1013318
10:00+30зюз4665100 0.0 1014837
13:00+30зюз4659100 3.1 10131094
16:00+29ююз1267100 4.8 1012588
19:00+28ююв127399 4.8 1013131
22:00+27ююз237999 0.0 1013146